SAS1817 ESSA-ENGM

Flight info

Callsign SAS1817
Flight time 0h 44m
Altitude 36000
Route ARS6G ARS N623 IBGAX DCT EBURI N623 ESEBA ESEBA4M
Aircraft A359/H-SDE2E3GHIJ3J4J5LM1ORWXY/LB1D1

Departure

Time 2026-05-07 19:27
Airport Stockholm-Arlanda Airport (ESSA)

Arrival

Time 2026-05-07 20:11
Airport Oslo-Gardermoen International Airport (ENGM)
Time Latitude Longitude Altitude Speed Heading
2026-05-07 19:09 59.65472 17.93466 115 ft 0 kts 76°
2026-05-07 19:10 59.65472 17.93467 114 ft 0 kts 76°
2026-05-07 19:16 59.65468 17.93435 113 ft 3 kts 60°
2026-05-07 19:16 59.65454 17.93404 116 ft 3 kts 18°
2026-05-07 19:16 59.65434 17.93401 113 ft 3 kts 336°
2026-05-07 19:17 59.65430 17.93404 113 ft 0 kts 330°
2026-05-07 19:22 59.65463 17.93375 114 ft 14 kts 340°
2026-05-07 19:23 59.65569 17.93328 113 ft 18 kts 360°
2026-05-07 19:23 59.65644 17.93520 115 ft 21 kts 74°
2026-05-07 19:23 59.65684 17.93833 120 ft 26 kts 75°
2026-05-07 19:23 59.65731 17.94199 123 ft 30 kts 77°
2026-05-07 19:24 59.65781 17.94597 126 ft 30 kts 76°
2026-05-07 19:24 59.65824 17.94983 129 ft 22 kts 96°
2026-05-07 19:24 59.65710 17.95158 135 ft 21 kts 161°
2026-05-07 19:24 59.65558 17.95243 135 ft 25 kts 163°
2026-05-07 19:25 59.65376 17.95338 135 ft 28 kts 166°
2026-05-07 19:25 59.65171 17.95447 124 ft 33 kts 165°
2026-05-07 19:25 59.64985 17.95571 113 ft 24 kts 140°
2026-05-07 19:25 59.64956 17.95655 111 ft 1 kts 115°
2026-05-07 19:26 59.64931 17.95757 110 ft 19 kts 118°
2026-05-07 19:26 59.64745 17.95842 112 ft 49 kts 190°
2026-05-07 19:26 59.64150 17.95629 116 ft 125 kts 190°
2026-05-07 19:26 59.63095 17.95234 336 ft 170 kts 191°
2026-05-07 19:27 59.61923 17.94670 1247 ft 170 kts 192°
2026-05-07 19:27 59.60703 17.94206 1870 ft 193 kts 181°
2026-05-07 19:27 59.59439 17.95246 2633 ft 202 kts 136°
2026-05-07 19:27 59.58463 17.97190 3629 ft 203 kts 134°
2026-05-07 19:28 59.57414 17.99112 4486 ft 209 kts 139°
2026-05-07 19:28 59.56157 18.00635 5309 ft 218 kts 163°
2026-05-07 19:28 59.54609 18.00883 6077 ft 230 kts 184°
2026-05-07 19:28 59.52981 18.00566 6934 ft 239 kts 188°
2026-05-07 19:29 59.51310 18.00155 7892 ft 244 kts 189°
2026-05-07 19:29 59.49625 17.99588 8879 ft 248 kts 199°
2026-05-07 19:29 59.48134 17.97974 9903 ft 245 kts 227°
2026-05-07 19:29 59.47201 17.95210 10691 ft 250 kts 253°
2026-05-07 19:30 59.46955 17.91705 11144 ft 271 kts 272°
2026-05-07 19:30 59.47009 17.87824 11580 ft 297 kts 274°
2026-05-07 19:30 59.47089 17.83596 12022 ft 321 kts 273°
2026-05-07 19:30 59.47154 17.79055 12463 ft 342 kts 273°
2026-05-07 19:31 59.47204 17.74290 13209 ft 353 kts 272°
2026-05-07 19:31 59.47245 17.69368 14151 ft 358 kts 272°
2026-05-07 19:31 59.47282 17.64458 15009 ft 361 kts 272°
2026-05-07 19:31 59.47314 17.59571 15901 ft 363 kts 272°
2026-05-07 19:32 59.47345 17.54519 16839 ft 366 kts 272°
2026-05-07 19:32 59.47401 17.49558 17792 ft 369 kts 274°
2026-05-07 19:32 59.47762 17.44489 18712 ft 372 kts 283°
2026-05-07 19:32 59.48401 17.39603 19533 ft 376 kts 285°
2026-05-07 19:33 59.49105 17.34622 20328 ft 380 kts 285°
2026-05-07 19:33 59.49825 17.29522 21140 ft 384 kts 285°
2026-05-07 19:33 59.50528 17.24499 21948 ft 388 kts 285°
2026-05-07 19:33 59.51244 17.19355 22756 ft 391 kts 285°
2026-05-07 19:34 59.51963 17.14156 23563 ft 396 kts 284°
2026-05-07 19:34 59.52687 17.08898 24238 ft 400 kts 284°
2026-05-07 19:34 59.53416 17.03588 24914 ft 403 kts 285°
2026-05-07 19:34 59.54149 16.98225 25614 ft 406 kts 285°
2026-05-07 19:35 59.54885 16.92827 26280 ft 410 kts 285°
2026-05-07 19:35 59.55624 16.87384 26951 ft 413 kts 285°
2026-05-07 19:35 59.56367 16.81889 27616 ft 416 kts 285°
2026-05-07 19:35 59.57113 16.76351 28269 ft 419 kts 285°
2026-05-07 19:36 59.57863 16.70768 28890 ft 423 kts 285°
2026-05-07 19:36 59.58615 16.65147 29527 ft 425 kts 285°
2026-05-07 19:36 59.59326 16.59509 30370 ft 421 kts 283°
2026-05-07 19:36 59.59920 16.53863 31096 ft 419 kts 282°
2026-05-07 19:37 59.60456 16.48224 31748 ft 417 kts 281°
2026-05-07 19:37 59.60974 16.42604 32466 ft 414 kts 281°
2026-05-07 19:37 59.61493 16.37033 33110 ft 412 kts 281°
2026-05-07 19:37 59.62023 16.31463 33701 ft 411 kts 282°
2026-05-07 19:38 59.62559 16.25925 34258 ft 411 kts 282°
2026-05-07 19:38 59.63103 16.20381 34684 ft 411 kts 282°
2026-05-07 19:38 59.63700 16.14850 35022 ft 413 kts 283°
2026-05-07 19:38 59.64345 16.09299 35363 ft 415 kts 283°
2026-05-07 19:39 59.65008 16.03723 35718 ft 417 kts 283°
2026-05-07 19:39 59.65671 15.98130 36042 ft 419 kts 283°
2026-05-07 19:39 59.66329 15.92498 36144 ft 421 kts 282°
2026-05-07 19:39 59.66977 15.86863 36151 ft 420 kts 282°
2026-05-07 19:40 59.68256 15.75552 36146 ft 422 kts 282°
2026-05-07 19:40 59.69522 15.64197 36146 ft 422 kts 282°
2026-05-07 19:41 59.70779 15.52834 36143 ft 422 kts 282°
2026-05-07 19:41 59.72025 15.41470 36144 ft 422 kts 282°
2026-05-07 19:42 59.73269 15.30107 35970 ft 418 kts 282°
2026-05-07 19:42 59.73867 15.24553 35282 ft 418 kts 282°
2026-05-07 19:42 59.74477 15.18842 34601 ft 418 kts 282°
2026-05-07 19:43 59.75065 15.13304 34028 ft 414 kts 282°
2026-05-07 19:43 59.75655 15.07740 33276 ft 412 kts 283°
2026-05-07 19:43 59.76244 15.02170 32370 ft 414 kts 283°
2026-05-07 19:43 59.76835 14.96561 31444 ft 416 kts 283°
2026-05-07 19:44 59.77428 14.90922 30528 ft 418 kts 283°
2026-05-07 19:44 59.78020 14.85266 29654 ft 418 kts 283°
2026-05-07 19:44 59.78605 14.79651 28939 ft 413 kts 282°
2026-05-07 19:44 59.79182 14.74079 28191 ft 410 kts 282°
2026-05-07 19:45 59.79751 14.68565 27465 ft 406 kts 282°
2026-05-07 19:45 59.80314 14.63093 26767 ft 403 kts 282°
2026-05-07 19:45 59.80871 14.57655 26090 ft 400 kts 282°
2026-05-07 19:45 59.81421 14.52274 25469 ft 396 kts 282°
2026-05-07 19:46 59.81964 14.46934 24804 ft 392 kts 282°
2026-05-07 19:46 59.82500 14.41645 24150 ft 389 kts 282°
2026-05-07 19:46 59.83030 14.36384 23455 ft 387 kts 282°
2026-05-07 19:46 59.83554 14.31160 22654 ft 384 kts 282°
2026-05-07 19:47 59.84074 14.25965 21910 ft 381 kts 281°
2026-05-07 19:47 59.84587 14.20814 21210 ft 378 kts 281°
2026-05-07 19:47 59.85172 14.15741 20500 ft 375 kts 286°
2026-05-07 19:47 59.86061 14.10876 19805 ft 373 kts 291°
2026-05-07 19:48 59.87054 14.06153 19334 ft 365 kts 292°
2026-05-07 19:48 59.88047 14.01556 18857 ft 358 kts 292°
2026-05-07 19:48 59.89032 13.97027 18244 ft 355 kts 292°
2026-05-07 19:48 59.90013 13.92532 17486 ft 354 kts 292°
2026-05-07 19:49 59.90995 13.88037 16788 ft 352 kts 292°
2026-05-07 19:49 59.91970 13.83574 16125 ft 350 kts 292°
2026-05-07 19:49 59.92937 13.79141 15480 ft 348 kts 292°
2026-05-07 19:49 59.93898 13.74730 14837 ft 346 kts 292°
2026-05-07 19:50 59.94852 13.70343 14205 ft 344 kts 292°
2026-05-07 19:50 59.95799 13.65980 13515 ft 342 kts 292°
2026-05-07 19:50 59.96727 13.61692 12837 ft 340 kts 292°
2026-05-07 19:50 59.97659 13.57380 12323 ft 337 kts 292°
2026-05-07 19:51 59.98585 13.53090 12116 ft 337 kts 292°
2026-05-07 19:51 59.99512 13.48783 12137 ft 338 kts 292°
2026-05-07 19:51 60.00437 13.44474 12140 ft 337 kts 292°
2026-05-07 19:51 60.01360 13.40168 12137 ft 337 kts 292°
2026-05-07 19:52 60.02281 13.35865 12127 ft 337 kts 292°
2026-05-07 19:52 60.03201 13.31554 12141 ft 337 kts 292°
2026-05-07 19:52 60.04119 13.27246 12123 ft 337 kts 292°
2026-05-07 19:52 60.05035 13.22937 12135 ft 337 kts 292°
2026-05-07 19:53 60.05950 13.18627 12142 ft 336 kts 292°
2026-05-07 19:53 60.06863 13.14313 12124 ft 336 kts 292°
2026-05-07 19:53 60.07774 13.10000 12123 ft 336 kts 292°
2026-05-07 19:53 60.08684 13.05685 12122 ft 336 kts 292°
2026-05-07 19:54 60.09593 13.01366 12128 ft 336 kts 292°
2026-05-07 19:54 60.10500 12.97044 12129 ft 336 kts 292°
2026-05-07 19:54 60.11406 12.92722 12130 ft 336 kts 292°
2026-05-07 19:54 60.12311 12.88394 12126 ft 336 kts 291°
2026-05-07 19:55 60.13213 12.84068 12133 ft 336 kts 291°
2026-05-07 19:55 60.14114 12.79739 12131 ft 336 kts 291°
2026-05-07 19:55 60.15014 12.75407 12136 ft 336 kts 291°
2026-05-07 19:55 60.15913 12.71073 12129 ft 336 kts 291°
2026-05-07 19:56 60.16809 12.66739 12132 ft 336 kts 291°
2026-05-07 19:56 60.17705 12.62401 12135 ft 336 kts 291°
2026-05-07 19:56 60.18598 12.58066 12125 ft 336 kts 291°
2026-05-07 19:56 60.19490 12.53725 12130 ft 336 kts 291°
2026-05-07 19:57 60.20381 12.49383 12136 ft 336 kts 291°
2026-05-07 19:57 60.21271 12.45036 12118 ft 336 kts 291°
2026-05-07 19:57 60.22154 12.40713 11699 ft 332 kts 291°
2026-05-07 19:57 60.23029 12.36418 10991 ft 332 kts 291°
2026-05-07 19:58 60.23901 12.32127 10394 ft 331 kts 291°
2026-05-07 19:58 60.24769 12.27848 9675 ft 330 kts 291°
2026-05-07 19:58 60.25634 12.23574 8921 ft 329 kts 291°
2026-05-07 19:58 60.26496 12.19314 8190 ft 328 kts 291°
2026-05-07 19:59 60.27354 12.15057 7467 ft 327 kts 291°
2026-05-07 19:59 60.28199 12.10863 6891 ft 313 kts 291°
2026-05-07 19:59 60.28985 12.06956 6472 ft 289 kts 291°
2026-05-07 19:59 60.29716 12.03308 5909 ft 274 kts 291°
2026-05-07 20:00 60.30424 11.99765 5316 ft 272 kts 291°
2026-05-07 20:00 60.31122 11.96267 5044 ft 264 kts 291°
2026-05-07 20:00 60.31814 11.92793 5019 ft 268 kts 291°
2026-05-07 20:00 60.32506 11.89316 5018 ft 267 kts 291°
2026-05-07 20:01 60.33197 11.85837 5013 ft 267 kts 291°
2026-05-07 20:01 60.33878 11.82361 5012 ft 266 kts 289°
2026-05-07 20:01 60.34446 11.78802 5012 ft 266 kts 285°
2026-05-07 20:01 60.34961 11.75212 5015 ft 266 kts 285°
2026-05-07 20:02 60.35468 11.71621 5014 ft 265 kts 285°
2026-05-07 20:02 60.35958 11.68158 5007 ft 248 kts 285°
2026-05-07 20:02 60.36417 11.64913 5009 ft 236 kts 285°
2026-05-07 20:02 60.36868 11.61734 4996 ft 234 kts 285°
2026-05-07 20:03 60.37165 11.59637 5006 ft 235 kts 285°
2026-05-07 20:03 60.37616 11.56461 4871 ft 236 kts 285°
2026-05-07 20:03 60.38067 11.53274 4538 ft 235 kts 285°
2026-05-07 20:03 60.38511 11.50112 4220 ft 233 kts 285°
2026-05-07 20:04 60.38951 11.46978 4030 ft 232 kts 285°
2026-05-07 20:04 60.39542 11.42802 4007 ft 233 kts 285°
2026-05-07 20:04 60.39844 11.40671 4007 ft 233 kts 285°
2026-05-07 20:04 60.40289 11.37522 4009 ft 233 kts 285°
2026-05-07 20:05 60.40734 11.34367 4007 ft 233 kts 285°
2026-05-07 20:05 60.41180 11.31215 4007 ft 233 kts 285°
2026-05-07 20:05 60.41610 11.28048 4001 ft 233 kts 282°
2026-05-07 20:05 60.41631 11.24777 3748 ft 235 kts 259°
2026-05-07 20:06 60.40985 11.21845 3529 ft 225 kts 228°
2026-05-07 20:06 60.39829 11.19921 3500 ft 208 kts 209°
2026-05-07 20:06 60.38541 11.18919 3503 ft 191 kts 193°
2026-05-07 20:06 60.37283 11.18271 3528 ft 184 kts 194°
2026-05-07 20:07 60.36058 11.17572 3523 ft 183 kts 195°
2026-05-07 20:07 60.34829 11.16849 3470 ft 184 kts 195°
2026-05-07 20:07 60.33606 11.16124 3233 ft 183 kts 195°
2026-05-07 20:07 60.32386 11.15413 2970 ft 181 kts 195°
2026-05-07 20:08 60.31216 11.14735 2713 ft 168 kts 194°
2026-05-07 20:08 60.30131 11.14105 2483 ft 156 kts 194°
2026-05-07 20:08 60.29126 11.13522 2284 ft 145 kts 194°
2026-05-07 20:08 60.28180 11.12974 2094 ft 138 kts 195°
2026-05-07 20:09 60.27275 11.12448 1904 ft 134 kts 195°
2026-05-07 20:09 60.26382 11.11930 1727 ft 133 kts 195°
2026-05-07 20:09 60.25490 11.11415 1530 ft 134 kts 195°
2026-05-07 20:10 60.23696 11.10370 1153 ft 135 kts 196°
2026-05-07 20:10 60.22788 11.09837 942 ft 136 kts 193°
2026-05-07 20:10 60.21882 11.09329 771 ft 135 kts 194°
2026-05-07 20:10 60.20982 11.08807 681 ft 128 kts 198°
2026-05-07 20:11 60.20299 11.08412 679 ft 72 kts 196°
2026-05-07 20:11 60.20027 11.08295 678 ft 30 kts 176°
2026-05-07 20:11 60.19903 11.08409 677 ft 12 kts 122°
2026-05-07 20:11 60.19894 11.08516 679 ft 6 kts 75°
2026-05-07 20:12 60.19938 11.08586 680 ft 10 kts 19°
2026-05-07 20:12 60.20014 11.08634 679 ft 13 kts 17°
2026-05-07 20:12 60.20106 11.08692 680 ft 10 kts 19°
2026-05-07 20:12 60.20139 11.08794 680 ft 11 kts 87°
2026-05-07 20:13 60.20111 11.09034 678 ft 23 kts 105°
2026-05-07 20:13 60.20066 11.09358 681 ft 25 kts 106°
2026-05-07 20:13 60.20017 11.09702 685 ft 25 kts 106°
2026-05-07 20:13 60.19966 11.09871 682 ft 15 kts 153°
2026-05-07 20:14 60.19854 11.09849 684 ft 18 kts 195°
2026-05-07 20:14 60.19762 11.09816 683 ft 10 kts 163°
2026-05-07 20:14 60.19732 11.09928 686 ft 11 kts 105°
2026-05-07 20:14 60.19724 11.09984 687 ft 0 kts 106°